QTR254 VABB-OTHH

Flight info

Callsign QTR254
Flight time N/A
Altitude 40000
Route RAXET2A SAKUN V1 KARKU L301 RAGMA N571 MENSA DCT EGTAG Q576 RORON/N0490F340 M430 TOSNA
Aircraft A359/H-SDE2E3GHIJ3J4J5LM1ORWXY/LB1D1

Departure

Time 2026-05-08 09:03
Airport Chhatrapati Shivaji Maharaj International Airport (VABB)

Arrival

Time N/A
Airport Hamad International Airport (OTHH)
Time Latitude Longitude Altitude Speed Heading
2026-05-08 08:44 19.09317 72.87214 52 ft 0 kts 342°
2026-05-08 08:53 19.09310 72.87216 53 ft 2 kts 347°
2026-05-08 08:53 19.09295 72.87218 53 ft 2 kts
2026-05-08 08:53 19.09281 72.87215 53 ft 2 kts 17°
2026-05-08 08:53 19.09268 72.87209 53 ft 2 kts 30°
2026-05-08 08:54 19.09255 72.87200 52 ft 2 kts 44°
2026-05-08 08:54 19.09246 72.87189 53 ft 2 kts 57°
2026-05-08 08:54 19.09238 72.87174 52 ft 2 kts 71°
2026-05-08 08:54 19.09235 72.87159 53 ft 2 kts 84°
2026-05-08 08:55 19.09234 72.87149 53 ft 1 kts 91°
2026-05-08 08:55 19.09234 72.87148 53 ft 0 kts 91°
2026-05-08 08:57 19.09234 72.87184 52 ft 12 kts 89°
2026-05-08 08:57 19.09185 72.87260 52 ft 17 kts 176°
2026-05-08 08:57 19.09067 72.87291 52 ft 17 kts 122°
2026-05-08 08:57 19.09054 72.87406 52 ft 13 kts 90°
2026-05-08 08:58 19.09053 72.87509 52 ft 14 kts 90°
2026-05-08 08:58 19.09054 72.87620 52 ft 15 kts 87°
2026-05-08 08:58 19.09056 72.87726 52 ft 13 kts 90°
2026-05-08 08:58 19.09057 72.87828 52 ft 14 kts 90°
2026-05-08 08:59 19.09059 72.87919 52 ft 13 kts 90°
2026-05-08 08:59 19.09060 72.88018 53 ft 11 kts 92°
2026-05-08 08:59 19.09043 72.88044 52 ft 3 kts 146°
2026-05-08 08:59 19.09017 72.88052 52 ft 4 kts 179°
2026-05-08 09:00 19.09007 72.88052 52 ft 0 kts 180°
2026-05-08 09:01 19.08993 72.88052 52 ft 6 kts 180°
2026-05-08 09:02 19.08904 72.88032 52 ft 18 kts 229°
2026-05-08 09:02 19.08886 72.87873 52 ft 26 kts 269°
2026-05-08 09:02 19.08882 72.87576 53 ft 67 kts 269°
2026-05-08 09:02 19.08872 72.86845 53 ft 132 kts 269°
2026-05-08 09:03 19.08857 72.85693 134 ft 176 kts 269°
2026-05-08 09:03 19.08852 72.84390 840 ft 175 kts 270°
2026-05-08 09:03 19.08852 72.83167 1668 ft 166 kts 269°
2026-05-08 09:03 19.08835 72.81990 2340 ft 159 kts 269°
2026-05-08 09:04 19.08814 72.80785 2661 ft 170 kts 269°
2026-05-08 09:04 19.08793 72.79494 2990 ft 182 kts 269°
2026-05-08 09:04 19.08771 72.78114 3315 ft 196 kts 269°
2026-05-08 09:04 19.08748 72.76617 3638 ft 210 kts 269°
2026-05-08 09:05 19.08724 72.75008 3956 ft 226 kts 270°
2026-05-08 09:05 19.08797 72.73280 4298 ft 244 kts 276°
2026-05-08 09:05 19.09045 72.71450 4699 ft 260 kts 279°
2026-05-08 09:05 19.09300 72.69500 5140 ft 274 kts 277°
2026-05-08 09:06 19.09532 72.67495 5776 ft 280 kts 277°
2026-05-08 09:06 19.09760 72.65449 6498 ft 283 kts 276°
2026-05-08 09:06 19.09988 72.63373 7217 ft 286 kts 276°
2026-05-08 09:06 19.10215 72.61278 7925 ft 288 kts 276°
2026-05-08 09:07 19.10441 72.59188 8617 ft 291 kts 276°
2026-05-08 09:07 19.10674 72.57024 9318 ft 294 kts 276°
2026-05-08 09:07 19.10903 72.54884 9997 ft 297 kts 276°
2026-05-08 09:07 19.11137 72.52706 10529 ft 305 kts 276°
2026-05-08 09:08 19.11383 72.50401 10852 ft 321 kts 276°
2026-05-08 09:08 19.11639 72.48002 11159 ft 337 kts 276°
2026-05-08 09:08 19.11904 72.45510 11566 ft 348 kts 276°
2026-05-08 09:08 19.12178 72.42931 12182 ft 353 kts 276°
2026-05-08 09:09 19.12453 72.40347 12842 ft 356 kts 276°
2026-05-08 09:09 19.12726 72.37769 13483 ft 359 kts 276°
2026-05-08 09:09 19.13005 72.35142 14118 ft 362 kts 276°
2026-05-08 09:09 19.13285 72.32484 14743 ft 365 kts 276°
2026-05-08 09:10 19.13564 72.29833 15349 ft 368 kts 276°
2026-05-08 09:10 19.13848 72.27131 15956 ft 371 kts 276°
2026-05-08 09:10 19.14137 72.24389 16561 ft 374 kts 276°
2026-05-08 09:10 19.14425 72.21646 17153 ft 378 kts 276°
2026-05-08 09:11 19.14716 72.18881 17739 ft 381 kts 276°
2026-05-08 09:11 19.15007 72.16110 18313 ft 384 kts 276°
2026-05-08 09:11 19.15307 72.13282 18886 ft 387 kts 278°
2026-05-08 09:11 19.15823 72.10519 19433 ft 390 kts 285°
2026-05-08 09:12 19.16718 72.07787 19988 ft 393 kts 293°
2026-05-08 09:12 19.17926 72.05179 20547 ft 396 kts 297°
2026-05-08 09:12 19.19220 72.02617 21096 ft 399 kts 298°
2026-05-08 09:12 19.20539 72.00037 21636 ft 402 kts 298°
2026-05-08 09:13 19.21876 71.97415 22175 ft 405 kts 298°
2026-05-08 09:13 19.23203 71.94798 22703 ft 408 kts 298°
2026-05-08 09:13 19.24553 71.92128 23229 ft 411 kts 298°
2026-05-08 09:13 19.25892 71.89473 23733 ft 414 kts 298°
2026-05-08 09:14 19.27261 71.86753 24228 ft 417 kts 298°
2026-05-08 09:14 19.28623 71.84044 24702 ft 420 kts 298°
2026-05-08 09:14 19.29998 71.81307 25163 ft 423 kts 298°
2026-05-08 09:14 19.31376 71.78562 25608 ft 425 kts 298°
2026-05-08 09:15 19.32769 71.75784 26041 ft 428 kts 298°
2026-05-08 09:15 19.34152 71.73027 26455 ft 431 kts 298°
2026-05-08 09:15 19.35566 71.70206 26862 ft 433 kts 298°
2026-05-08 09:15 19.36975 71.67392 27253 ft 436 kts 298°
2026-05-08 09:16 19.38400 71.64545 27636 ft 438 kts 298°
2026-05-08 09:16 19.39826 71.61695 28006 ft 440 kts 298°
2026-05-08 09:16 19.41262 71.58824 28368 ft 443 kts 298°
2026-05-08 09:16 19.42720 71.55909 28724 ft 445 kts 298°
2026-05-08 09:17 19.44152 71.53042 29063 ft 447 kts 298°
2026-05-08 09:17 19.45618 71.50105 29398 ft 449 kts 298°
2026-05-08 09:17 19.47069 71.47199 29718 ft 451 kts 298°
2026-05-08 09:17 19.48543 71.44243 30033 ft 453 kts 298°
2026-05-08 09:18 19.50026 71.41269 30339 ft 455 kts 298°
2026-05-08 09:18 19.51494 71.38324 30631 ft 457 kts 298°
2026-05-08 09:18 19.52979 71.35342 30916 ft 459 kts 298°
2026-05-08 09:18 19.54476 71.32327 31195 ft 461 kts 297°
2026-05-08 09:19 19.55957 71.29335 31465 ft 463 kts 297°
2026-05-08 09:19 19.57468 71.26286 31731 ft 464 kts 297°
2026-05-08 09:19 19.58963 71.23244 31984 ft 466 kts 296°
2026-05-08 09:19 19.60340 71.20130 32230 ft 468 kts 293°
2026-05-08 09:20 19.61549 71.16975 32466 ft 469 kts 290°
2026-05-08 09:20 19.62640 71.13668 32703 ft 471 kts 288°
2026-05-08 09:20 19.63670 71.10375 32934 ft 472 kts 288°
2026-05-08 09:20 19.64700 71.07056 33157 ft 474 kts 288°
2026-05-08 09:21 19.65722 71.03760 33371 ft 475 kts 288°
2026-05-08 09:21 19.66759 71.00423 33581 ft 477 kts 288°
2026-05-08 09:22 19.73002 70.80363 35122 ft 475 kts 288°
2026-05-08 09:23 19.74027 70.77064 35375 ft 475 kts 288°
2026-05-08 09:23 19.75058 70.73744 35621 ft 474 kts 288°
2026-05-08 09:23 19.76092 70.70412 35861 ft 473 kts 288°
2026-05-08 09:23 19.77120 70.67100 36092 ft 473 kts 288°
2026-05-08 09:24 19.78150 70.63777 36314 ft 472 kts 288°
2026-05-08 09:24 19.79169 70.60487 36519 ft 472 kts 288°
2026-05-08 09:24 19.80184 70.57210 36708 ft 472 kts 288°
2026-05-08 09:24 19.81216 70.53878 36888 ft 472 kts 288°
2026-05-08 09:25 19.82225 70.50615 37058 ft 472 kts 288°
2026-05-08 09:25 19.83241 70.47322 37224 ft 472 kts 288°
2026-05-08 09:25 19.84316 70.44021 37386 ft 472 kts 291°
2026-05-08 09:25 19.85573 70.40805 37541 ft 472 kts 295°
2026-05-08 09:26 19.87028 70.37691 37690 ft 472 kts 299°
2026-05-08 09:26 19.88680 70.34690 37834 ft 472 kts 302°
2026-05-08 09:26 19.89871 70.32777 37928 ft 472 kts 305°
2026-05-08 09:26 19.92516 70.29085 38113 ft 472 kts 310°
2026-05-08 09:27 19.94701 70.26482 38228 ft 472 kts 313°
2026-05-08 09:27 19.96949 70.23962 38331 ft 473 kts 314°
2026-05-08 09:27 19.99234 70.21431 38427 ft 474 kts 314°
2026-05-08 09:28 20.03784 70.16389 38616 ft 475 kts 314°
2026-05-08 09:28 20.08341 70.11319 38804 ft 476 kts 314°
2026-05-08 09:29 20.12926 70.06220 38991 ft 477 kts 314°
2026-05-08 09:29 20.17512 70.01128 39152 ft 478 kts 314°
2026-05-08 09:30 20.22076 69.96039 39302 ft 478 kts 314°
2026-05-08 09:30 20.26658 69.90915 39444 ft 479 kts 314°
2026-05-08 09:31 20.31248 69.85775 39577 ft 480 kts 314°
2026-05-08 09:31 20.35848 69.80617 39702 ft 481 kts 314°
2026-05-08 09:32 20.40453 69.75449 39820 ft 482 kts 314°
2026-05-08 09:32 20.45042 69.70294 39929 ft 482 kts 314°
2026-05-08 09:33 20.49668 69.65093 39960 ft 483 kts 314°
2026-05-08 09:33 20.54271 69.59912 39962 ft 483 kts 314°
2026-05-08 09:34 20.58812 69.54796 39962 ft 483 kts 314°
2026-05-08 09:34 20.63427 69.49592 39963 ft 483 kts 314°
2026-05-08 09:35 20.68032 69.44394 39962 ft 483 kts 314°
2026-05-08 09:35 20.72675 69.39150 39962 ft 483 kts 314°
2026-05-08 09:36 20.77268 69.33954 39962 ft 483 kts 313°
2026-05-08 09:36 20.81859 69.28729 39963 ft 483 kts 313°
2026-05-08 09:37 20.86460 69.23511 39963 ft 483 kts 313°
2026-05-08 09:37 20.91061 69.18264 39962 ft 483 kts 311°
2026-05-08 09:38 20.95263 69.12705 39961 ft 483 kts 306°
2026-05-08 09:38 20.98907 69.06674 39961 ft 483 kts 300°
2026-05-08 09:39 21.01939 69.00270 39962 ft 483 kts 294°
2026-05-08 09:39 21.04683 68.93690 39962 ft 483 kts 294°
2026-05-08 09:40 21.07418 68.87096 39963 ft 483 kts 294°
2026-05-08 09:40 21.10154 68.80514 39962 ft 483 kts 294°
2026-05-08 09:41 21.12911 68.73953 39963 ft 483 kts 294°
2026-05-08 09:41 21.15667 68.67374 39963 ft 483 kts 294°
2026-05-08 09:42 21.18401 68.60811 39963 ft 483 kts 294°
2026-05-08 09:42 21.21123 68.54252 39963 ft 483 kts 294°
2026-05-08 09:43 21.23841 68.47689 39963 ft 483 kts 294°
2026-05-08 09:43 21.26569 68.41094 39963 ft 483 kts 294°
2026-05-08 09:44 21.29284 68.34519 39963 ft 483 kts 294°
2026-05-08 09:44 21.31983 68.27947 39963 ft 483 kts 294°
2026-05-08 09:45 21.34682 68.21371 39963 ft 483 kts 294°
2026-05-08 09:45 21.37384 68.14793 39963 ft 483 kts 294°
2026-05-08 09:46 21.40091 68.08202 39963 ft 483 kts 294°
2026-05-08 09:46 21.42797 68.01605 39963 ft 484 kts 294°
2026-05-08 09:47 21.45507 67.94992 39963 ft 484 kts 294°
2026-05-08 09:47 21.48196 67.88420 39963 ft 484 kts 294°
2026-05-08 09:48 21.50902 67.81799 39963 ft 484 kts 294°
2026-05-08 09:48 21.53586 67.75222 39963 ft 484 kts 294°
2026-05-08 09:49 21.56288 67.68594 39963 ft 484 kts 294°
2026-05-08 09:49 21.58963 67.62022 39963 ft 484 kts 294°
2026-05-08 09:50 21.61664 67.55376 39963 ft 484 kts 294°
2026-05-08 09:50 21.64347 67.48766 39962 ft 484 kts 294°
2026-05-08 09:51 21.67041 67.42120 39962 ft 484 kts 294°
2026-05-08 09:51 21.69715 67.35515 39962 ft 484 kts 294°
2026-05-08 09:52 21.72396 67.28862 39963 ft 484 kts 293°
2026-05-08 09:52 21.75043 67.22282 39963 ft 484 kts 293°
2026-05-08 09:53 21.77708 67.15665 39963 ft 484 kts 293°
2026-05-08 09:53 21.80391 67.09000 39963 ft 484 kts 293°
2026-05-08 09:54 21.83042 67.02409 39963 ft 484 kts 293°
2026-05-08 09:54 21.85714 66.95755 39963 ft 484 kts 293°
2026-05-08 09:55 21.88355 66.89172 39963 ft 484 kts 293°
2026-05-08 09:55 21.91025 66.82505 39963 ft 484 kts 293°
2026-05-08 09:56 21.93698 66.75825 39962 ft 484 kts 293°
2026-05-08 09:56 21.96363 66.69155 39962 ft 484 kts 293°
2026-05-08 09:57 22.00341 66.59190 39962 ft 484 kts 293°
2026-05-08 09:57 22.02987 66.52554 39962 ft 484 kts 293°
2026-05-08 09:58 22.05632 66.45896 39962 ft 484 kts 293°
2026-05-08 09:58 22.08270 66.39223 39962 ft 484 kts 293°
2026-05-08 09:59 22.10897 66.32587 39962 ft 484 kts 293°
2026-05-08 09:59 22.13562 66.25897 39962 ft 484 kts 293°
2026-05-08 10:00 22.16203 66.19239 39962 ft 484 kts 293°
2026-05-08 10:00 22.18831 66.12592 39963 ft 484 kts 293°
2026-05-08 10:01 22.21464 66.05915 39963 ft 484 kts 293°
2026-05-08 10:01 22.24080 65.99271 39963 ft 484 kts 293°
2026-05-08 10:02 22.26697 65.92612 39963 ft 484 kts 293°
2026-05-08 10:02 22.29330 65.85905 39963 ft 484 kts 293°
2026-05-08 10:03 22.31934 65.79262 39963 ft 484 kts 293°
2026-05-08 10:03 22.34565 65.72540 39963 ft 484 kts 293°
2026-05-08 10:04 22.37166 65.65884 39963 ft 484 kts 293°
2026-05-08 10:04 22.39792 65.59155 39963 ft 484 kts 293°
2026-05-08 10:05 22.42317 65.52677 39963 ft 484 kts 293°
2026-05-08 10:05 22.44965 65.45874 39963 ft 484 kts 293°
2026-05-08 10:06 22.47568 65.39174 39963 ft 484 kts 293°
2026-05-08 10:06 22.50169 65.32468 39963 ft 483 kts 292°
2026-05-08 10:07 22.52762 65.25744 39963 ft 483 kts 292°
2026-05-08 10:07 22.55338 65.19071 39963 ft 483 kts 292°
2026-05-08 10:08 22.57923 65.12376 39963 ft 483 kts 292°
2026-05-08 10:08 22.60505 65.05681 39963 ft 483 kts 292°
2026-05-08 10:09 22.63082 64.98992 39963 ft 483 kts 292°
2026-05-08 10:09 22.65669 64.92267 39963 ft 483 kts 292°
2026-05-08 10:10 22.68244 64.85564 39963 ft 483 kts 292°
2026-05-08 10:10 22.70811 64.78872 39963 ft 483 kts 292°
2026-05-08 10:11 22.73400 64.72112 39962 ft 483 kts 292°
2026-05-08 10:11 22.75969 64.65398 39962 ft 483 kts 292°
2026-05-08 10:12 22.78536 64.58675 39962 ft 483 kts 292°
2026-05-08 10:12 22.81108 64.51932 39962 ft 483 kts 292°
2026-05-08 10:13 22.83664 64.45221 39962 ft 483 kts 292°
2026-05-08 10:13 22.86223 64.38492 39962 ft 483 kts 292°
2026-05-08 10:14 22.88772 64.31771 39962 ft 483 kts 292°
2026-05-08 10:14 22.91322 64.25020 39963 ft 483 kts 292°
2026-05-08 10:15 22.93875 64.18269 39963 ft 483 kts 292°
2026-05-08 10:15 22.96426 64.11526 39963 ft 483 kts 292°